Location: Newark
(53.7833°N, 9.4833°E)
Time: 11:11:53
(UTC+00:00)

Envisat - Pass Details

Date: 10 December 2019
Orbit: 764 x 766 km, 98.1° (Epoch: 22 January)

Event Time Altitude Azimuth Distance (km) Brightness Sun altitude
Rises 04:37:47 0° 28° (NNE) 3,247 6.5 -23.6°
Reaches altitude 10° 04:41:30 10° 56° (NE) 2,314 6.1 -23.1°
Maximum altitude 04:43:48 13° 83° (E) 2,106 6.2 -22.7°
Drops below altitude 10° 04:46:06 10° 110° (ESE) 2,305 6.6 -22.4°
Sets 04:49:47 0° 138° (SE) 3,224 7.0 -21.9°
